Temperature
28 27 26 26 27 26 26 26 26 26 26 25 25 25 25 24 24 24 24 24 23 22 22 21 20 20 21 21 21 22 22 23 22 22 22 21 21 20 20 19 19 19 19 19
28 26 26 27 27 26 26 26 26 26 26 25 24 24 25 24 24 23 23 23 23 21 21 20 19 19 19 19 20 21 22 22 22 22 21 21 21 20 20 19 19 19 19 18
27 26 26 26 26 25 24 24 24 23 24 25 24 24 25 25 24 23 22 22 21 21 20 19 19 18 18 18 18 19 20 21 22 22 22 21 20 20 19 19 19 18 18 18
26 25 25 25 24 23 22 23 23 22 22 22 24 22 24 24 22 22 21 21 21 20 20 19 18 17 17 17 17 18 19 19 20 21 21 21 20 19 19 19 18 18 18 18
23 23 23 22 22 22 22 23 22 22 22 22 23 22 22 20 18 17 18 19 20 20 19 18 17 17 16 16 16 17 18 18 19 20 20 20 20 19 19 18 18 17 17 17
23 23 22 21 22 23 23 23 23 23 22 20 21 21 18 15 15 15 16 18 18 18 18 17 16 16 15 15 15 16 16 17 18 18 19 19 19 18 18 17 17 17 16 16
23 22 22 21 21 21 21 20 20 20 20 19 19 18 14 14 15 15 15 16 17 17 17 16 15 14 14 14 14 15 15 16 17 17 17 18 18 17 17 16 16 16 16 16
24 21 20 20 20 19 20 20 18 17 18 19 19 16 13 14 14 15 15 16 16 15 15 14 14 14 13 13 13 14 14 15 15 16 16 16 16 16 15 15 15 15 15 15
23 21 21 20 20 19 18 18 19 18 19 19 18 15 15 14 14 14 14 14 14 14 14 13 13 13 13 13 13 13 13 14 14 14 14 14 14 14 14 14 14 14 14 14
23 21 20 21 20 19 18 18 17 17 16 16 17 14 11 12 12 13 13 13 12 12 12 13 13 13 13 13 12 12 13 13 13 13 13 13 13 13 13 13 13 13 13 13
22 22 21 20 18 17 17 17 16 17 16 14 14 12 11 10 11 11 11 11 11 11 12 12 12 12 12 12 12 12 12 12 13 13 13 13 13 13 13 13 13 13 13 14
22 21 21 18 18 18 17 16 16 15 14 13 12 11 10 10 10 10 10 10 10 11 11 12 12 12 12 12 12 12 12 12 12 12 13 13 13 13 13 14 14 14 14 14
19 21 20 18 18 18 17 17 16 15 14 12 11 10 10 9 10 10 10 10 11 11 12 12 12 12 12 12 12 12 12 13 13 13 13 13 13 14 14 14 14 14 15 15
18 21 19 17 16 17 16 16 16 15 13 11 10 10 10 10 10 10 11 11 12 12 13 13 13 13 13 13 13 13 13 13 13 13 13 13 14 14 14 14 14 14 14 14
21 21 19 19 19 18 17 16 16 15 14 12 11 11 11 11 11 11 12 13 13 14 14 14 14 14 13 13 13 13 13 13 13 13 13 13 13 13 13 14 14 14 14 14
21 21 20 19 19 19 18 17 16 15 15 14 14 13 14 13 13 13 13 14 14 14 14 14 14 14 14 14 14 13 13 13 13 12 12 13 13 13 13 13 13 13 13 13
21 21 21 20 20 19 18 18 17 16 16 15 14 15 15 15 15 15 14 15 15 15 15 15 15 15 15 15 14 14 13 13 12 12 12 12 12 12 12 12 12 12 12 12
21 21 21 21 20 19 18 18 17 16 16 16 16 17 16 16 15 15 15 15 15 15 15 15 15 15 15 15 15 14 14 13 12 12 12 12 12 12 12 12 12 12 11 11
20 20 20 21 19 19 18 18 18 18 17 17 17 18 18 17 17 16 15 15 15 15 15 15 15 15 15 15 15 15 14 13 12 12 12 12 11 11 11 11 11 11 11 11
20 20 20 21 20 19 19 19 18 18 17 18 18 18 18 17 16 16 16 15 15 15 15 15 15 15 15 15 15 15 14 13 12 12 12 11 11 11 11 11 11 11 11 11
21 20 20 20 21 20 19 18 18 17 17 18 18 17 17 17 16 16 16 15 15 15 15 15 15 15 15 15 15 15 14 13 13 12 12 12 12 12 11 11 11 11 11 11
22 21 21 21 20 18 18 18 18 18 18 18 17 17 16 16 16 16 16 15 15 15 15 15 15 15 16 16 15 15 14 14 13 13 13 12 12 12 11 11 11 11 11 11
21 21 20 20 19 18 18 18 18 18 18 17 17 16 16 16 16 16 16 15 15 15 15 15 15 16 16 16 16 15 15 14 14 13 13 13 12 12 11 11 11 11 11 10
23 21 20 20 20 18 18 18 16 17 17 16 16 16 16 16 16 16 16 15 15 15 15 15 15 15 16 16 16 15 15 14 14 14 13 13 12 12 11 11 11 11 10 10
22 20 20 20 21 19 18 17 17 16 17 16 16 16 15 15 15 15 15 15 15 15 15 15 15 15 16 16 16 15 15 14 14 14 14 13 12 12 11 11 11 10 10 10
23 21 20 21 21 20 18 17 17 16 16 16 16 16 15 15 15 15 15 15 15 15 15 15 15 15 15 15 15 15 15 15 14 14 14 13 12 12 11 11 11 10 10 10
Wind_Speed
3 5 4 8 9 10 13 15 15 10 2 6 9 7 3 6 2 1 4 5 6 9 11 11 12 12 11 9 8 9 8 7 6 6 7 7 7 6 6 6 7 7 5 5
3 7 10 10 10 11 13 15 15 11 7 6 9 10 6 6 5 3 3 5 7 9 9 10 10 12 13 13 12 12 10 8 7 6 7 7 8 7 6 6 6 7 6 5
7 10 10 11 11 12 14 15 15 16 14 12 13 14 12 9 8 6 2 5 8 9 9 10 10 10 10 11 13 14 14 13 8 7 6 6 5 6 6 7 5 5 6 6
6 12 13 12 13 14 14 15 17 17 16 14 16 13 7 6 8 5 6 7 8 8 9 9 10 10 11 12 12 14 14 14 12 7 5 8 7 6 6 6 5 4 4 4
10 12 12 13 14 15 14 16 18 19 16 17 17 14 5 8 9 12 12 10 9 10 10 10 11 11 12 12 11 12 13 12 11 8 4 6 6 5 5 6 7 5 3 3
11 10 10 11 14 13 15 17 18 15 11 13 10 9 4 8 12 13 15 15 14 13 12 12 13 12 12 12 12 11 11 11 10 9 5 3 7 7 8 7 7 6 4 3
9 14 12 13 15 14 16 14 7 6 3 3 6 5 7 12 15 14 15 17 16 15 13 13 13 13 13 14 14 12 11 10 9 9 9 7 8 8 8 7 6 5 4 3
3 7 12 11 12 11 14 12 8 6 7 9 3 4 6 12 15 16 16 16 17 16 14 13 13 12 13 14 14 12 11 10 10 10 10 10 10 8 7 7 7 5 3 3
7 6 9 9 10 13 11 10 10 8 10 8 3 6 5 17 19 20 20 18 17 16 15 13 12 12 12 13 12 12 10 10 11 11 11 11 11 10 9 8 6 4 3 3
7 3 6 7 9 13 11 10 6 7 7 6 6 6 10 22 22 21 19 18 17 16 15 14 12 11 10 10 10 10 10 10 10 10 9 9 9 9 8 7 6 4 3 3
9 3 6 7 10 13 12 12 8 6 5 5 7 4 11 18 18 18 18 16 15 14 14 13 12 10 9 8 8 9 9 10 9 9 8 8 7 6 5 4 3 1 1 2
6 6 5 9 8 9 11 12 10 5 5 5 4 5 15 15 14 14 15 15 14 14 13 13 12 11 9 9 8 8 7 8 7 7 6 5 4 3 2 2 2 2 3 4
8 7 2 5 4 11 11 14 11 5 4 6 5 7 11 11 12 12 12 12 11 11 11 10 10 10 9 8 7 7 6 6 5 5 4 3 2 2 3 3 4 4 5 5
4 7 10 7 5 6 9 12 13 9 5 5 4 5 8 9 10 11 10 9 9 8 7 7 7 7 7 6 6 6 5 4 3 2 3 3 2 2 2 3 4 4 4 5
6 7 10 8 5 6 9 10 11 11 7 5 2 3 6 7 7 8 8 7 8 9 9 8 8 7 6 6 6 6 6 5 4 5 5 5 4 4 4 4 5 6 7 8
5 2 4 6 4 3 8 9 8 7 6 4 3 4 4 4 4 6 8 9 10 10 10 9 9 8 7 7 7 7 7 6 7 7 8 8 8 8 8 8 8 8 9 9
1 4 3 4 5 2 3 6 5 5 5 5 5 4 4 4 7 8 9 10 11 11 10 9 9 9 7 6 7 7 7 7 8 8 8 8 8 8 8 8 8 8 7 8
5 4 3 2 3 2 6 7 6 3 2 1 2 2 1 1 3 6 7 8 9 10 10 9 8 9 9 8 6 7 8 8 8 8 8 7 8 8 8 8 8 8 6 6
4 4 4 3 2 4 6 7 5 1 3 3 2 4 4 3 5 10 10 8 8 8 8 7 7 8 8 9 8 8 9 9 8 8 8 8 7 7 7 7 7 6 6 6
2 3 5 4 4 2 7 10 6 2 3 4 2 6 8 8 5 7 7 7 7 7 7 7 6 6 6 7 6 6 8 8 7 7 7 6 6 6 7 8 7 6 6 5
4 4 4 5 3 5 10 10 6 2 5 6 4 6 8 9 6 5 6 6 6 5 6 7 6 5 5 6 6 7 7 6 5 4 5 5 6 5 6 6 6 6 6 6
4 3 2 3 3 4 11 8 3 6 7 6 5 6 6 5 5 6 5 5 5 5 5 6 6 6 5 3 6 6 5 3 3 2 2 2 3 5 6 5 5 6 6 6
2 2 4 3 4 7 9 5 6 4 5 7 6 5 3 4 6 6 5 5 5 6 5 5 7 7 6 4 4 4 3 2 1 2 2 2 3 5 6 6 6 6 6 6
3 4 1 3 6 9 9 7 7 5 4 7 5 3 3 4 5 5 5 5 5 6 5 5 6 7 7 6 3 4 4 3 2 2 3 4 5 5 6 6 6 6 6 6
1 4 3 4 4 9 9 8 10 8 6 6 5 4 3 3 4 5 5 5 5 5 5 6 6 7 7 7 6 6 5 5 4 2 3 4 5 5 6 6 6 6 6 5
5 6 4 2 6 7 10 12 12 11 9 8 6 5 3 2 3 4 4 4 5 5 6 6 7 7 8 8 7 7 6 5 4 3 4 4 4 4 5 6 5 8 6 6
Wind_Direction
238 284 16 7 349 327 312 299 297 303 250 244 277 285 160 134 123 23 359 10 17 20 10 14 1 352 347 335 315 291 272 234 216 199 187 176 178 173 166 166 170 173 170 156
251 43 11 341 320 316 311 305 302 298 305 297 287 279 264 178 166 98 3 5 24 26 9 12 5 0 352 343 336 318 301 274 236 216 201 192 176 174 167 162 158 158 165 168
39 36 358 336 332 347 327 325 336 327 316 290 274 268 252 201 158 135 100 31 28 19 9 7 3 3 349 343 340 333 327 316 285 232 200 195 182 171 164 165 161 162 166 167
42 27 6 352 358 349 317 331 325 310 300 287 281 282 268 166 133 82 44 31 27 19 13 9 6 1 353 349 342 334 330 326 316 295 220 189 179 180 172 160 146 155 159 149
60 33 19 4 345 326 316 314 298 286 279 278 276 275 298 49 46 22 3 360 12 18 15 15 11 6 0 354 349 340 333 331 328 317 279 195 165 155 142 138 138 134 118 106
84 64 43 2 333 330 324 311 294 272 255 261 287 290 40 27 14 7 349 352 4 11 13 18 16 11 5 359 356 351 346 344 346 352 3 117 133 133 127 128 132 121 104 83
116 75 46 15 360 354 344 339 333 340 333 326 7 35 52 15 8 360 347 351 360 6 12 17 17 11 6 4 0 357 359 2 11 26 43 63 89 100 107 113 112 106 99 79
1 59 38 17 15 349 346 355 358 329 328 320 333 86 67 16 355 351 351 354 357 1 5 17 20 16 11 7 5 5 11 22 30 43 52 62 72 79 81 86 92 89 84 74
6 74 58 29 26 18 359 360 334 310 308 310 50 95 58 7 357 352 352 352 354 356 0 12 16 15 13 9 10 12 22 36 45 52 57 60 65 72 76 75 74 72 57 50
328 86 85 49 30 32 18 355 348 344 342 332 4 51 3 351 348 346 347 349 351 357 359 4 7 8 9 8 9 17 28 41 50 56 62 68 65 67 68 68 64 55 37 20
337 325 112 67 36 21 16 12 1 343 7 352 340 26 10 348 345 345 347 352 356 0 2 2 3 3 1 11 16 22 28 39 46 52 60 64 63 60 57 57 51 31 335 303
10 319 80 84 82 52 31 15 9 9 14 11 342 12 5 348 347 349 352 355 1 5 4 2 3 6 9 20 20 22 31 39 40 41 48 50 44 37 16 336 287 272 268 268
342 334 45 131 136 41 27 22 22 42 51 30 9 348 345 342 349 352 354 354 354 358 2 2 3 10 17 22 21 28 33 34 29 24 22 18 3 336 309 293 279 270 270 268
290 39 50 63 62 26 28 32 35 47 52 51 31 333 328 336 339 340 341 342 349 355 3 5 5 16 29 35 37 38 40 31 17 3 8 16 3 324 305 306 305 304 298 290
311 74 86 92 92 66 55 53 54 58 61 67 53 349 321 313 312 318 326 338 7 18 20 19 16 21 32 41 49 44 44 44 42 39 30 23 22 24 18 20 13 16 18 20
344 69 131 132 127 95 79 73 70 62 56 64 59 16 319 295 310 345 359 12 28 28 22 21 20 20 34 41 51 51 47 45 47 46 40 34 35 34 36 38 35 37 39 35
311 310 316 139 148 208 103 86 83 69 58 34 26 351 337 18 31 24 17 19 27 28 23 17 20 15 23 48 54 59 59 51 48 46 46 41 37 36 32 33 33 41 51 50
330 333 297 275 194 46 98 113 120 116 112 120 326 323 327 75 100 56 31 25 23 18 18 11 21 23 12 25 53 65 59 56 49 41 39 47 39 33 29 32 37 29 33 54
327 318 298 338 51 131 150 163 178 206 105 117 17 10 16 174 121 59 36 31 29 16 8 359 14 25 11 6 17 50 56 50 45 40 33 32 36 31 26 26 32 33 26 37
214 265 285 294 294 57 126 136 152 216 166 131 56 31 29 38 54 40 31 31 27 17 360 348 359 23 359 342 351 52 63 56 41 31 33 25 21 25 28 25 23 25 21 21
207 202 247 290 306 98 120 133 164 243 115 118 80 44 39 44 41 33 29 28 16 20 6 348 348 357 346 345 4 48 61 67 69 41 33 21 6 17 44 32 27 25 23 18
321 308 294 284 282 129 140 158 185 99 116 121 92 64 45 39 39 32 34 27 5 8 16 352 339 330 316 359 14 33 59 75 120 127 77 24 30 31 38 44 44 33 18 23
223 336 345 354 59 112 156 154 104 127 136 111 92 81 55 41 41 27 33 31 4 2 16 351 328 322 332 14 24 14 40 24 55 106 96 44 77 79 49 44 45 39 29 27
129 102 242 264 174 165 180 150 142 170 125 110 111 104 62 45 38 22 34 33 7 2 1 343 343 350 340 340 2 41 33 3 23 72 76 75 69 83 77 51 46 44 30 23
68 152 218 243 161 154 177 179 169 172 159 143 141 119 78 43 33 19 34 27 0 353 352 356 357 341 337 355 19 46 26 356 347 41 82 86 78 77 88 73 47 50 59 43
202 183 203 246 170 174 184 183 177 173 175 167 163 146 129 75 30 16 26 11 353 353 4 5 352 343 352 3 20 30 4 347 355 47 72 72 81 78 109 119 92 49 61 55
Height
1504 1505 1509 1509 1507 1508 1508 1508 1507 1504 1502 1505 1506 1504 1503 1507 1510 1512 1513 1513 1514 1514 1514 1513 1512 1511 1510 1509 1508 1508 1509 1510 1511 1511 1513 1514 1516 1518 1520 1521 1523 1526 1529 1532
1503 1512 1510 1509 1507 1508 1509 1509 1506 1501 1499 1502 1505 1504 1502 1504 1508 1511 1514 1514 1514 1515 1516 1514 1513 1511 1508 1506 1505 1505 1505 1506 1507 1507 1507 1508 1509 1512 1514 1517 1519 1521 1524 1528
1508 1515 1513 1512 1510 1514 1517 1515 1515 1513 1505 1502 1505 1506 1501 1500 1506 1511 1514 1515 1515 1516 1516 1515 1513 1511 1509 1506 1504 1501 1500 1500 1500 1501 1502 1502 1503 1505 1509 1511 1513 1517 1520 1523
1512 1517 1518 1518 1520 1522 1525 1517 1517 1516 1517 1514 1508 1516 1502 1499 1506 1513 1515 1516 1517 1517 1515 1514 1513 1511 1508 1505 1502 1499 1497 1495 1495 1495 1495 1496 1496 1498 1499 1505 1507 1512 1516 1519
1525 1526 1528 1530 1530 1526 1523 1519 1517 1514 1515 1516 1510 1514 1512 1512 1520 1524 1523 1520 1518 1517 1515 1514 1512 1510 1507 1504 1500 1497 1494 1492 1491 1490 1491 1492 1492 1494 1496 1500 1504 1508 1512 1515
1525 1529 1533 1536 1530 1525 1521 1516 1509 1503 1508 1521 1516 1519 1529 1535 1535 1532 1529 1524 1520 1518 1516 1514 1511 1508 1505 1502 1498 1494 1491 1489 1488 1487 1487 1488 1489 1492 1495 1497 1501 1503 1507 1511
1527 1532 1535 1537 1534 1530 1525 1526 1526 1523 1522 1526 1521 1529 1547 1543 1539 1536 1533 1527 1523 1520 1517 1514 1511 1507 1504 1500 1496 1492 1489 1487 1486 1485 1485 1486 1488 1490 1493 1495 1498 1501 1503 1507
1527 1538 1540 1541 1541 1541 1533 1531 1542 1547 1538 1529 1520 1538 1550 1547 1544 1540 1535 1529 1526 1523 1519 1516 1513 1509 1505 1500 1496 1493 1490 1487 1486 1485 1485 1486 1487 1489 1492 1494 1496 1500 1502 1504
1533 1543 1541 1543 1543 1544 1542 1542 1537 1538 1533 1530 1530 1543 1545 1547 1545 1541 1536 1532 1528 1525 1521 1518 1515 1511 1507 1502 1498 1495 1492 1489 1488 1487 1487 1488 1489 1490 1492 1494 1496 1499 1501 1503
1533 1539 1543 1544 1545 1546 1547 1545 1543 1546 1549 1549 1540 1552 1563 1555 1551 1545 1540 1535 1531 1527 1523 1519 1516 1513 1509 1506 1502 1498 1495 1492 1491 1490 1490 1491 1492 1493 1494 1496 1497 1500 1502 1503
1537 1536 1542 1546 1553 1556 1553 1551 1550 1548 1550 1562 1563 1568 1568 1564 1557 1551 1544 1539 1533 1529 1524 1521 1517 1514 1511 1508 1504 1501 1498 1496 1495 1495 1495 1496 1496 1497 1498 1499 1500 1502 1503 1504
1539 1539 1542 1553 1554 1554 1556 1556 1555 1562 1565 1566 1572 1577 1572 1567 1560 1554 1548 1541 1536 1531 1527 1522 1519 1516 1513 1510 1507 1505 1503 1502 1501 1501 1501 1501 1502 1502 1503 1504 1504 1505 1506 1506
1547 1542 1548 1559 1559 1558 1559 1558 1556 1558 1566 1575 1580 1584 1574 1568 1561 1555 1549 1543 1538 1534 1530 1526 1523 1519 1516 1513 1511 1509 1508 1507 1506 1506 1506 1506 1506 1506 1507 1507 1507 1507 1508 1508
1552 1546 1555 1565 1569 1564 1564 1563 1561 1563 1573 1580 1584 1582 1574 1568 1562 1556 1551 1546 1542 1538 1534 1531 1527 1524 1521 1518 1515 1513 1512 1511 1510 1509 1509 1509 1509 1509 1509 1509 1509 1509 1509 1509
1546 1548 1554 1558 1559 1560 1563 1565 1566 1569 1573 1578 1581 1577 1572 1567 1562 1557 1553 1549 1545 1542 1539 1536 1532 1529 1526 1523 1521 1518 1517 1515 1514 1513 1512 1511 1510 1510 1510 1510 1509 1509 1509 1509
1547 1549 1551 1557 1557 1558 1562 1564 1567 1569 1570 1573 1572 1572 1567 1565 1562 1558 1555 1552 1549 1546 1543 1540 1537 1534 1531 1528 1526 1524 1521 1519 1518 1516 1515 1513 1513 1512 1511 1511 1510 1510 1509 1509
1547 1547 1550 1552 1553 1557 1563 1564 1567 1569 1570 1571 1573 1571 1565 1564 1562 1560 1558 1555 1552 1549 1547 1544 1541 1538 1535 1533 1531 1528 1526 1524 1522 1520 1519 1517 1516 1515 1514 1513 1512 1511 1510 1509
1550 1549 1549 1547 1551 1563 1567 1562 1565 1568 1568 1569 1568 1565 1564 1564 1563 1562 1560 1558 1556 1553 1551 1548 1545 1543 1540 1537 1535 1533 1531 1529 1527 1525 1523 1522 1520 1518 1517 1516 1514 1513 1512 1511
1553 1552 1551 1548 1558 1560 1562 1561 1563 1565 1565 1566 1566 1564 1562 1561 1562 1563 1562 1560 1558 1556 1554 1551 1549 1547 1544 1541 1539 1537 1534 1532 1530 1528 1527 1525 1523 1522 1520 1518 1517 1515 1513 1512
1553 1553 1553 1550 1554 1558 1557 1557 1561 1565 1566 1565 1565 1564 1563 1562 1564 1565 1564 1562 1560 1558 1556 1554 1552 1549 1546 1544 1541 1539 1537 1535 1533 1532 1530 1528 1526 1524 1522 1520 1518 1516 1515 1514
1550 1551 1554 1551 1551 1552 1554 1558 1562 1568 1567 1564 1565 1566 1566 1566 1567 1567 1565 1563 1562 1560 1558 1556 1554 1552 1549 1547 1545 1542 1540 1538 1536 1534 1532 1530 1528 1526 1524 1522 1520 1518 1517 1516
1547 1548 1548 1549 1551 1559 1555 1558 1560 1562 1562 1564 1566 1567 1568 1567 1567 1566 1565 1564 1562 1561 1559 1557 1555 1552 1550 1548 1546 1544 1542 1540 1537 1535 1533 1532 1530 1528 1526 1524 1522 1520 1519 1518
1545 1546 1548 1548 1554 1552 1554 1556 1558 1561 1562 1564 1566 1567 1568 1567 1567 1566 1565 1564 1563 1561 1559 1557 1555 1553 1551 1549 1547 1545 1543 1541 1539 1537 1536 1534 1532 1530 1528 1526 1524 1522 1521 1520
1539 1544 1547 1547 1547 1551 1554 1556 1558 1561 1562 1564 1566 1567 1567 1567 1567 1566 1565 1564 1562 1561 1559 1557 1555 1553 1551 1549 1547 1545 1543 1542 1540 1538 1537 1535 1534 1532 1530 1528 1526 1524 1523 1522
1540 1544 1545 1546 1545 1549 1552 1554 1557 1560 1562 1564 1565 1566 1567 1567 1567 1566 1565 1563 1562 1561 1559 1558 1556 1554 1552 1550 1548 1545 1543 1542 1541 1539 1538 1536 1535 1533 1532 1530 1528 1527 1526 1525
1536 1540 1543 1542 1540 1545 1548 1551 1555 1558 1560 1563 1564 1566 1566 1566 1566 1566 1565 1563 1562 1561 1559 1557 1555 1554 1552 1550 1548 1545 1543 1542 1541 1540 1539 1538 1536 1535 1534 1532 1531 1530 1528 1527